Weather in Novodzhereliyevskaya

Russia / Krasnodar Krai     45°46′28″N   38°40′16″E
temp.,
°C
wind,
m/s
gust,
m/s
humid.,
%
clouds,
%
prec.,
mm/h
press.,
hPa
HPBL,
m
21 april, wed
wed2100:00+10sw10167788 0.0 10111214
03:00+10sw81386100 0.0 1014767
06:00+10sw51188100 0.0 1015518
09:00+12wsw587532 0.1 1017789
12:00+15sw676288 0.1 10181582
15:00+15wsw566928 0.9 1018994
18:00+14wsw35715 0.3 1019286
21:00+10wnw22857 0.4 102127
22 april, thu
thu2200:00+9wsw128931 0.0 102111
03:00+7w229138 0.0 102224
06:00+7wnw1192100 0.0 102213
09:00+12wsw007497 0.0 1023399
12:00+16n1058100 0.0 10221011
15:00+18wnw115271 0.0 10221658
18:00+14nnw4675100 0.1 1022248
21:00+10nnw34814 0.2 102369
23 april, fri
fri2300:00+9nnw22830 0.0 102317
03:00+8wnw12860 0.0 102310
06:00+8wnw11820 0.0 102310
09:00+13s22660 0.0 1023420
12:00+17ssw23515 0.0 10221310
15:00+18sw234716 0.0 10211990
18:00+17n2261100 0.0 101943
21:00+12nnw2272100 0.0 102032
24 april, sat
sat2400:00+11nw3470100 0.0 1019106
03:00+9w22855 0.2 101815
06:00+9ssw23905 0.0 101846
09:00+14sw58675 0.0 1018744
12:00+16w795637 0.0 10181753
15:00+13w6873100 0.0 1019783
18:00+12w46725 0.0 1020700
21:00+8w358466 0.0 102192
25 april, sun
sun2500:00+7wnw2384100 0.0 102166
03:00+7wnw227890 0.0 102035
06:00+7sw118273 0.0 102010
09:00+11nw2270100 0.0 1020535
12:00+13nnw3262100 0.0 10191183
15:00+12nnw4362100 0.0 1018766
18:00+10nnw3469100 0.0 1018236
21:00+9nne2470100 0.0 1018120